Погода в Нинах

Россия / Ставропольский край     44°29′08″N   43°56′39″E
темп.,
°C
ветер,
м/с
пор.,
м/с
влажн.,
%
обл.,
%
осадки,
мм/ч
давл.,
гПа
погр.,
м
23 октября, сб
сб2300:00+11юз11490 0.0 102010
03:00+10зюз11510 0.0 102110
06:00+10зюз11520 0.0 102110
09:00+15ю11410 0.0 1021132
12:00+20вюв22300 0.0 1020590
15:00+21вюв22260 0.0 1019898
18:00+16юв22380 0.0 101911
21:00+14ю22485 0.0 101910
24 октября, вс
вс2400:00+12зюз225420 0.0 101910
03:00+11зсз335539 0.0 101920
06:00+10сз226531 0.0 102020
09:00+14сз2362100 0.0 1020193
12:00+17с2254100 0.0 1018659
15:00+18св2251100 0.0 1017885
18:00+15в2263100 0.0 101613
21:00+13в3372100 0.0 101645
25 октября, пн
пн2500:00+12всв2477100 0.0 101575
03:00+11с3482100 0.0 1017122
06:00+9с6870100 0.0 1020451
09:00+8ссз6979100 0.1 1024741
12:00+7сз5783100 2.9 1025875
15:00+7сз4678100 4.6 1027862
18:00+8з4771100 0.1 1028471
21:00+8зсз4773100 0.1 1029321
26 октября, вт
вт2600:00+7с236699 0.0 1030163
03:00+6ссв2465100 0.0 1031186
06:00+6ссв346433 0.0 1032186
09:00+7всв33555 0.0 1033428
12:00+9в33467 0.0 10311168
15:00+10в334537 0.0 10301420
18:00+8в355634 0.0 1031147
21:00+6в485845 0.0 1031227
27 октября, ср
ср2700:00+4в49595 0.0 1031226
03:00+3вюв38716 0.0 1030200
06:00+3вюв38755 0.0 1030182
09:00+6вюв58585 0.0 1030473
12:00+10вюв67515 0.0 10281058
15:00+11юв675580 0.0 10261266
18:00+10юв5760100 0.0 1026660
21:00+9ююв2672100 0.0 1025382